KD8BMB Weather Reports


time (UTC)temp
C
wind
direction
speed
KPH
gust
KPH
rain 1hr
cm
rain 24hr
cm
rain mn
cm
humidity
%
barometer
mb
20221207233357 4 347 0.0 1.6 0.00 0.00 0.00 92 1025.2
20221207232857 4 7 0.0 0.0 0.00 0.00 0.00 92 1025.5
20221207232356 4 307 3.2 3.2 0.00 0.00 0.00 92 1025.3
20221207231855 5 53 0.0 0.0 0.00 0.00 0.00 91 1025.1
20221207231355 5 320 0.0 0.0 0.00 0.00 0.00 91 1025.3
20221207230854 5 312 1.6 4.8 0.00 0.00 0.00 90 1025.3
20221207230354 5 323 1.6 1.6 0.00 0.00 0.00 90 1025.1
20221207225854 5 303 1.6 1.6 0.00 0.00 0.00 89 1025.3
20221207225354 5 302 1.6 1.6 0.00 0.00 0.00 89 1025.1
20221207224853 5 328 3.2 9.7 0.00 0.00 0.00 89 1025.1
20221207224353 5 313 3.2 3.2 0.00 0.00 0.00 89 1025.0
20221207223852 5 319 3.2 3.2 0.00 0.00 0.00 89 1024.7
20221207223350 5 356 0.0 0.0 0.00 0.00 0.00 89 1024.7
20221207222850 5 309 0.0 0.0 0.00 0.00 0.00 89 1024.7
20221207222349 5 326 0.0 0.0 0.00 0.00 0.00 89 1024.7
20221207221848 5 280 0.0 0.0 0.00 0.00 0.00 89 1024.7
20221207221346 5 294 1.6 1.6 0.00 0.00 0.00 89 1024.6
20221207220845 5 315 0.0 0.0 0.00 0.00 0.00 89 1024.6
20221207220344 5 343 0.0 1.6 0.00 0.00 0.00 89 1024.4
20221207215843 5 324 1.6 3.2 0.00 0.00 0.00 89 1024.5
20221207215342 5 328 1.6 1.6 0.00 0.00 0.00 88 1024.3
20221207214842 5 312 3.2 3.2 0.00 0.00 0.00 88 1024.3
20221207214340 5 3 3.2 3.2 0.00 0.00 0.00 87 1024.2
20221207213841 5 288 3.2 3.2 0.00 0.00 0.00 87 1024.1
20221207213339 5 330 0.0 0.0 0.00 0.00 0.00 87 1024.2
20221207212838 5 233 1.6 1.6 0.00 0.00 0.00 87 1024.2
20221207212337 5 270 1.6 3.2 0.00 0.00 0.00 87 1024.0
20221207211837 5 261 4.8 4.8 0.00 0.00 0.00 87 1024.1
20221207211334 5 276 1.6 3.2 0.00 0.00 0.00 87 1024.1
20221207210832 5 216 1.6 3.2 0.00 0.00 0.00 87 1023.9
20221207210330 5 280 3.2 3.2 0.00 0.00 0.00 87 1023.8
20221207205829 5 267 8.0 11.3 0.00 0.00 0.00 86 1023.9
20221207205329 6 246 4.8 4.8 0.00 0.00 0.00 86 1023.6
20221207204828 6 273 4.8 8.0 0.00 0.00 0.00 86 1023.6
20221207204326 6 304 4.8 4.8 0.00 0.00 0.00 85 1023.8
20221207203826 6 280 3.2 3.2 0.00 0.00 0.00 85 1023.5
20221207203325 6 293 3.2 3.2 0.00 0.00 0.00 85 1023.7
20221207202825 6 305 1.6 3.2 0.00 0.00 0.00 84 1023.3
20221207202323 6 288 4.8 4.8 0.00 0.00 0.00 84 1023.4
20221207201822 6 283 1.6 1.6 0.00 0.00 0.00 83 1023.4
20221207201320 6 299 1.6 1.6 0.00 0.00 0.00 83 1023.2
20221207200820 6 302 3.2 3.2 0.00 0.00 0.00 83 1023.3
20221207200318 6 280 1.6 3.2 0.00 0.00 0.00 83 1022.9
20221207195818 6 293 1.6 1.6 0.00 0.00 0.00 83 1023.0
20221207195318 6 221 0.0 1.6 0.00 0.00 0.00 83 1023.0
20221207194817 6 246 3.2 3.2 0.00 0.00 0.00 83 1022.8
20221207194315 6 317 3.2 3.2 0.00 0.00 0.00 83 1022.7
20221207193813 6 259 1.6 3.2 0.00 0.00 0.00 83 1022.8
20221207193312 6 260 1.6 1.6 0.00 0.00 0.00 83 1022.9
20221207192811 6 246 1.6 1.6 0.00 0.00 0.00 83 1022.9
20221207192309 6 290 1.6 1.6 0.00 0.00 0.00 82 1023.0
20221207191809 6 244 1.6 1.6 0.00 0.00 0.00 82 1022.6
20221207191307 6 336 0.0 0.0 0.00 0.00 0.00 83 1022.8
20221207190806 7 122 0.0 0.0 0.00 0.00 0.00 82 1022.7
20221207190305 6 251 0.0 0.0 0.00 0.00 0.00 83 1022.6
20221207185805 6 260 1.6 1.6 0.00 0.00 0.00 83 1022.6
20221207185306 6 281 1.6 1.6 0.00 0.00 0.00 83 1022.9
20221207184804 6 296 0.0 0.0 0.00 0.00 0.00 83 1023.0
20221207184302 7 55 0.0 1.6 0.00 0.00 0.00 82 1022.8
20221207183800 7 223 1.6 1.6 0.00 0.00 0.00 81 1022.7
20221207183259 6 290 0.0 0.0 0.00 0.00 0.00 82 1022.6
20221207182759 6 1 0.0 0.0 0.00 0.00 0.00 83 1022.6
20221207182257 6 210 0.0 1.6 0.00 0.00 0.00 83 1022.8
20221207181756 6 304 0.0 0.0 0.00 0.00 0.00 84 1022.8
20221207181255 6 317 0.0 1.6 0.00 0.00 0.00 83 1022.8
20221207180754 6 114 1.6 3.2 0.00 0.00 0.00 84 1022.8
20221207180252 6 301 0.0 0.0 0.00 0.00 0.00 83 1022.8
20221207175751 6 7 0.0 1.6 0.00 0.00 0.00 84 1022.8
20221207175252 6 300 0.0 0.0 0.00 0.00 0.00 84 1022.8
20221207174751 6 66 0.0 0.0 0.00 0.00 0.00 84 1022.8
20221207174250 6 256 0.0 0.0 0.00 0.00 0.00 85 1023.0
20221207173749 5 265 1.6 1.6 0.00 0.00 0.00 85 1023.3
20221207173249 6 300 1.6 1.6 0.00 0.00 0.00 86 1023.1
20221207172748 6 322 0.0 0.0 0.00 0.00 0.00 86 1022.8
20221207172246 6 65 0.0 0.0 0.00 0.00 0.00 86 1023.0
20221207171745 6 331 1.6 1.6 0.00 0.00 0.00 86 1023.0
20221207171244 6 12 0.0 0.0 0.00 0.00 0.00 88 1023.1
20221207170744 6 31 1.6 1.6 0.00 0.00 0.00 86 1022.9
20221207170243 5 23 1.6 1.6 0.00 0.00 0.00 86 1023.0
20221207165743 5 60 0.0 0.0 0.00 0.00 0.00 86 1022.9
20221207165241 5 56 3.2 3.2 0.00 0.00 0.00 86 1023.1
20221207164740 5 53 0.0 1.6 0.00 0.00 0.00 87 1023.1
20221207164239 5 39 1.6 3.2 0.00 0.00 0.00 86 1023.0
20221207163739 5 39 0.0 1.6 0.00 0.00 0.00 86 1023.1
20221207163240 5 70 3.2 3.2 0.00 0.00 0.00 86 1023.0
20221207162739 5 46 0.0 1.6 0.00 0.00 0.00 87 1023.0
20221207162238 5 77 1.6 1.6 0.00 0.00 0.00 86 1022.9
20221207161737 5 71 6.4 9.7 0.00 0.00 0.00 86 1023.0
20221207161235 5 68 1.6 3.2 0.00 0.00 0.00 86 1023.0
20221207160734 6 81 0.0 0.0 0.00 0.00 0.00 86 1023.1
20221207160232 5 58 3.2 8.0 0.00 0.00 0.00 87 1022.9
20221207155730 5 62 1.6 3.2 0.00 0.00 0.00 88 1023.0
20221207155229 5 40 0.0 1.6 0.00 0.00 0.00 88 1023.0
20221207154728 5 65 0.0 1.6 0.00 0.00 0.00 89 1022.9
20221207154227 5 354 0.0 0.0 0.00 0.00 0.00 90 1022.8
20221207153727 5 63 0.0 0.0 0.00 0.00 0.00 89 1022.8
20221207153225 5 46 1.6 3.2 0.00 0.00 0.00 91 1023.0
20221207152725 5 21 3.2 3.2 0.00 0.00 0.00 91 1022.8
20221207152225 5 67 0.0 0.0 0.00 0.00 0.00 91 1022.5
20221207151724 5 12 4.8 4.8 0.00 0.00 0.00 92 1022.9
20221207151224 4 50 0.0 0.0 0.00 0.00 0.00 93 1022.6
20221207150723 4 74 1.6 3.2 0.00 0.00 0.00 93 1022.5
20221207150221 4 66 1.6 1.6 0.00 0.00 0.00 94 1022.4
20221207145720 3 53 1.6 1.6 0.00 0.00 0.00 94 1022.4
20221207145220 4 53 0.0 0.0 0.00 0.00 0.00 95 1022.5
20221207144719 3 55 0.0 1.6 0.00 0.00 0.00 96 1022.1
20221207144218 3 79 3.2 3.2 0.00 0.00 0.00 96 1022.3
20221207143716 3 38 1.6 3.2 0.00 0.00 0.00 96 1022.4
20221207143216 3 55 0.0 0.0 0.00 0.00 0.00 97 1022.2
20221207142714 3 49 1.6 3.2 0.00 0.00 0.00 97 1022.0
20221207142213 3 70 0.0 0.0 0.00 0.00 0.00 97 1022.0
20221207141712 3 318 0.0 1.6 0.00 0.00 0.00 97 1021.8
20221207141211 3 15 1.6 1.6 0.00 0.00 0.00 98 1021.8
20221207140710 3 4 1.6 1.6 0.00 0.00 0.00 98 1021.6
20221207140209 3 16 1.6 1.6 0.00 0.00 0.00 98 1022.1
20221207135708 3 341 0.0 1.6 0.00 0.00 0.00 98 1022.0
20221207135208 3 40 0.0 0.0 0.00 0.00 0.00 99 1022.0
20221207134706 3 318 0.0 0.0 0.00 0.00 0.00 99 1022.0
20221207134205 3 73 0.0 1.6 0.00 0.00 0.00 99 1021.7
20221207133703 3 327 0.0 0.0 0.00 0.00 0.00 99 1022.0
20221207133201 3 330 0.0 0.0 0.00 0.00 0.00 99 1021.8
20221207132701 3 338 0.0 0.0 0.00 0.00 0.00 99 1021.5
20221207132200 3 287 0.0 0.0 0.00 0.00 0.00 99 1021.7
20221207131659 3 287 0.0 0.0 0.00 0.00 0.00 99 1021.6
20221207131158 3 302 0.0 0.0 0.00 0.00 0.00 99 1021.8
20221207130656 3 303 0.0 0.0 0.00 0.00 0.00 99 1021.6
20221207130155 3 287 0.0 0.0 0.00 0.00 0.00 99 1021.4
20221207125655 3 287 0.0 0.0 0.00 0.00 0.00 99 1021.5
20221207125155 3 314 0.0 0.0 0.00 0.00 0.00 99 1021.3
20221207124654 3 306 0.0 0.0 0.00 0.00 0.00 99 1021.4
20221207124153 3 310 0.0 1.6 0.00 0.00 0.00 99 1021.5
20221207123653 3 309 0.0 0.0 0.00 0.00 0.00 99 1021.2
20221207123152 3 321 0.0 0.0 0.00 0.00 0.00 99 1021.2
20221207122650 3 343 0.0 1.6 0.00 0.00 0.00 99 1021.0
20221207122150 3 331 0.0 0.0 0.00 0.00 0.00 99 1021.3
20221207121650 3 313 0.0 1.6 0.00 0.00 0.00 99 1021.2
20221207121149 3 306 0.0 0.0 0.00 0.00 0.00 99 1021.3
20221207120648 3 322 0.0 0.0 0.00 0.00 0.00 99 1021.1
20221207120147 3 321 0.0 0.0 0.00 0.00 0.00 99 1021.2
20221207115647 3 311 0.0 0.0 0.00 0.00 0.00 99 1021.3
20221207115312 3 311 0.0 0.0 0.00 0.00 0.00 99 1021.2
20221207115145 3 311 0.0 0.0 0.00 0.00 0.00 99 1021.2
20221207114644 3 321 0.0 0.0 0.00 0.00 0.00 99 1021.2
20221207114142 3 310 0.0 0.0 0.00 0.00 0.00 99 1020.9
20221207113640 3 318 0.0 0.0 0.00 0.00 0.00 99 1020.7
20221207113138 3 318 0.0 0.0 0.00 0.00 0.00 99 1020.9
20221207112637 3 311 0.0 0.0 0.00 0.00 0.00 99 1021.1
20221207112136 3 301 0.0 0.0 0.00 0.00 0.00 99 1020.9
20221207111636 3 270 0.0 0.0 0.00 0.00 0.00 99 1021.1
20221207111135 3 270 0.0 0.0 0.00 0.00 0.00 99 1021.1
20221207110635 3 289 0.0 0.0 0.00 0.00 0.00 99 1020.8
20221207110134 3 313 0.0 0.0 0.00 0.00 0.00 99 1020.9
20221207105633 3 313 0.0 0.0 0.00 0.00 0.00 99 1020.9
20221207105132 3 317 0.0 0.0 0.00 0.00 0.00 99 1020.7
20221207104631 3 338 0.0 0.0 0.00 0.00 0.00 99 1020.8
20221207104131 3 312 0.0 0.0 0.00 0.00 0.00 99 1020.8
20221207103629 3 325 0.0 0.0 0.00 0.00 0.00 99 1020.9
20221207103128 3 348 0.0 1.6 0.00 0.00 0.00 99 1020.8
20221207102627 3 41 1.6 1.6 0.00 0.00 0.00 99 1020.6
20221207102125 3 319 0.0 0.0 0.00 0.00 0.00 99 1020.5
20221207101625 3 346 1.6 1.6 0.00 0.00 0.00 99 1020.6
20221207101123 3 337 0.0 1.6 0.00 0.00 0.00 99 1020.4
20221207100621 3 38 0.0 0.0 0.00 0.00 0.00 99 1020.4
20221207100121 3 3 0.0 1.6 0.00 0.00 0.00 99 1020.3
20221207095620 3 346 0.0 0.0 0.00 0.00 0.00 99 1020.2
20221207095120 3 328 0.0 0.0 0.00 0.00 0.00 99 1020.3
20221207094619 3 318 0.0 0.0 0.00 0.00 0.00 99 1020.2
20221207094118 3 330 0.0 0.0 0.00 0.00 0.00 99 1020.2
20221207093617 3 317 0.0 0.0 0.00 0.00 0.00 99 1020.2
20221207093116 3 309 0.0 0.0 0.00 0.00 0.00 99 1020.2
20221207092616 3 309 0.0 0.0 0.00 0.00 0.00 99 1020.3
20221207092115 3 11 0.0 0.0 0.00 0.00 0.00 99 1020.2
20221207091615 3 353 1.6 1.6 0.00 0.00 0.00 99 1020.1
20221207091115 3 20 4.8 4.8 0.00 0.00 0.00 99 1019.9
20221207090614 3 27 4.8 4.8 0.00 0.00 0.00 99 1020.1
20221207090113 3 321 1.6 3.2 0.00 0.00 0.00 99 1020.0
20221207085613 3 30 0.0 0.0 0.00 0.00 0.00 99 1020.0
20221207085111 3 5 1.6 3.2 0.00 0.00 0.00 99 1020.2
20221207084610 3 325 3.2 3.2 0.00 0.00 0.00 99 1020.2
20221207084110 3 289 4.8 4.8 0.00 0.00 0.00 99 1020.0
20221207083608 3 323 0.0 1.6 0.00 0.00 0.00 99 1020.1
20221207083107 3 13 3.2 3.2 0.00 0.00 0.00 99 1020.2
20221207082605 3 347 1.6 1.6 0.00 0.00 0.00 99 1020.2
20221207082105 3 7 3.2 3.2 0.00 0.00 0.00 99 1020.0
20221207081604 3 312 3.2 3.2 0.00 0.00 0.00 99 1020.0
20221207081102 3 306 0.0 1.6 0.00 0.00 0.00 99 1020.0
20221207080602 3 320 0.0 0.0 0.00 0.00 0.00 99 1019.9
20221207080100 3 320 0.0 1.6 0.00 0.00 0.00 99 1019.8
20221207075559 3 288 0.0 0.0 0.00 0.00 0.00 99 1019.9
20221207075057 3 325 0.0 1.6 0.00 0.00 0.00 99 1019.7
20221207074555 3 294 0.0 1.6 0.00 0.00 0.00 99 1019.8
20221207074054 3 312 0.0 0.0 0.00 0.00 0.00 99 1019.8
20221207073552 3 328 0.0 0.0 0.00 0.00 0.00 99 1019.9
20221207073051 3 316 0.0 0.0 0.00 0.00 0.00 99 1019.7
20221207072550 3 339 1.6 1.6 0.00 0.00 0.00 99 1019.6
20221207072049 3 322 1.6 3.2 0.00 0.00 0.00 99 1019.8
20221207071548 3 328 1.6 1.6 0.00 0.00 0.00 99 1019.6
20221207071047 3 318 3.2 3.2 0.00 0.00 0.00 99 1019.9
20221207070545 3 312 1.6 1.6 0.00 0.00 0.00 99 1019.8
20221207070043 3 298 1.6 3.2 0.00 0.00 0.00 99 1019.7
20221207065542 3 310 4.8 4.8 0.00 0.00 0.00 99 1019.9
20221207065038 3 313 4.8 4.8 0.00 0.00 0.00 99 1019.7
20221207064537 3 306 1.6 1.6 0.00 0.00 0.00 99 1019.6
20221207064037 3 300 1.6 1.6 0.00 0.00 0.00 99 1019.7
20221207063534 3 292 3.2 4.8 0.00 0.00 0.00 99 1019.7
20221207063032 3 316 4.8 9.7 0.00 0.00 0.00 99 1019.4
20221207062531 3 345 3.2 3.2 0.00 0.00 0.00 99 1019.4
20221207062030 3 328 3.2 3.2 0.00 0.00 0.00 99 1019.5
20221207061529 3 295 0.0 0.0 0.00 0.00 0.00 99 1019.3
20221207061027 3 309 3.2 3.2 0.00 0.00 0.00 99 1019.3
20221207060527 3 286 0.0 0.0 0.00 0.00 0.00 99 1018.8
20221207060026 3 286 0.0 0.0 0.00 0.00 0.00 99 1018.9
20221207055526 3 281 0.0 0.0 0.00 0.00 0.00 99 1019.0
20221207055025 3 287 0.0 0.0 0.00 0.00 0.00 99 1018.8
20221207054524 3 284 0.0 0.0 0.00 0.00 0.00 99 1019.0
20221207054022 3 289 0.0 0.0 0.00 0.00 0.00 99 1019.0
20221207053522 3 298 0.0 0.0 0.00 0.00 0.00 99 1019.1
20221207053020 3 288 0.0 0.0 0.00 0.00 0.00 99 1018.8
20221207052519 3 297 0.0 0.0 0.00 0.00 0.00 99 1018.6
20221207052018 3 295 0.0 0.0 0.00 0.00 0.00 99 1018.6
20221207051517 3 310 0.0 0.0 0.00 0.00 0.00 99 1018.7
20221207051017 3 276 0.0 0.0 0.00 0.00 0.00 99 1018.7
20221207050517 3 195 0.0 0.0 0.00 0.00 0.00 99 1018.5
20221207050017 3 211 0.0 1.6 0.00 0.00 0.00 99 1018.4
20221207045516 3 254 0.0 0.0 0.00 0.00 0.00 99 1018.5
20221207045016 3 102 0.0 0.0 0.00 0.00 0.00 99 1018.4
20221207044516 3 301 0.0 0.0 0.00 0.00 0.00 99 1018.4
20221207044015 3 308 0.0 0.0 0.00 0.00 0.00 99 1018.6
20221207043515 3 248 0.0 0.0 0.00 0.00 0.00 99 1018.4
20221207043014 3 303 0.0 0.0 0.00 0.00 0.00 99 1018.6
20221207042514 3 305 0.0 0.0 0.00 0.00 0.00 99 1018.3
20221207042013 3 336 0.0 0.0 0.00 0.00 0.00 99 1018.4
20221207041512 3 6 0.0 0.0 0.00 0.00 0.00 99 1018.3
20221207041012 3 59 1.6 1.6 0.00 0.00 0.00 99 1018.3
20221207040512 3 310 1.6 3.2 0.00 0.00 0.00 99 1018.3
20221207040012 3 270 1.6 1.6 0.00 0.08 0.08 99 1018.3
20221207035511 3 240 0.0 1.6 0.00 0.08 0.08 99 1018.4
20221207035009 3 0 0.0 0.0 0.00 0.08 0.08 99 1018.4
20221207034509 3 238 3.2 4.8 0.00 0.08 0.08 99 1018.4
20221207034009 3 304 0.0 0.0 0.18 0.08 0.08 99 1018.0
20221207033509 3 170 0.0 0.0 0.18 0.08 0.08 99 1018.5
20221207033007 3 321 0.0 0.0 0.00 0.05 0.05 99 1018.5
20221207032506 3 119 3.2 3.2 0.00 0.05 0.05 99 1018.2
20221207032004 3 345 0.0 0.0 0.00 0.05 0.05 99 1018.5
20221207031502 3 219 0.0 0.0 0.00 0.05 0.05 99 1018.6
20221207031002 3 78 0.0 0.0 0.00 0.05 0.05 99 1018.6
20221207030501 3 306 0.0 0.0 0.00 0.05 0.05 99 1018.7
20221207030000 3 318 0.0 0.0 0.00 0.05 0.05 99 1018.8
20221207025459 3 328 0.0 0.0 0.00 0.05 0.05 99 1018.7
20221207024959 3 113 0.0 0.0 0.00 0.05 0.05 99 1018.5
20221207024459 3 88 0.0 0.0 0.00 0.05 0.05 99 1018.4
20221207023958 3 88 1.6 1.6 0.00 0.05 0.05 99 1018.1
20221207023458 3 76 1.6 3.2 0.00 0.05 0.05 99 1018.2
20221207022957 3 155 1.6 1.6 0.00 0.05 0.05 99 1018.3
20221207022455 3 96 0.0 0.0 0.00 0.05 0.05 99 1018.4
20221207021953 3 86 1.6 1.6 0.00 0.05 0.05 99 1018.4
20221207021453 3 76 4.8 4.8 0.00 0.05 0.05 99 1018.3
20221207020952 3 106 3.2 3.2 0.00 0.05 0.05 99 1018.6
20221207020451 3 87 3.2 4.8 0.00 0.05 0.05 99 1018.0
20221207015950 3 64 1.6 1.6 0.00 0.05 0.05 98 1018.1
20221207015449 3 71 3.2 3.2 0.00 0.05 0.05 98 1017.8
20221207014949 3 83 1.6 3.2 0.00 0.05 0.05 98 1018.1
20221207014448 3 51 0.0 1.6 0.00 0.05 0.05 97 1018.0
20221207013947 3 77 4.8 4.8 0.00 0.05 0.05 97 1017.9
20221207013446 3 39 1.6 3.2 0.00 0.05 0.05 96 1018.1
20221207012944 3 39 0.0 1.6 0.00 0.05 0.05 96 1018.1
20221207012444 3 88 1.6 3.2 0.00 0.05 0.05 95 1018.1
20221207011942 3 58 1.6 1.6 0.00 0.05 0.05 94 1018.3
20221207011442 3 76 1.6 1.6 0.00 0.05 0.05 93 1018.6
20221207010942 3 71 1.6 1.6 0.00 0.05 0.05 93 1018.4
20221207010440 3 67 0.0 1.6 0.00 0.05 0.05 92 1018.4
20221207005940 3 78 1.6 1.6 0.00 0.05 0.05 92 1018.0
20221207005438 3 46 1.6 1.6 0.00 0.05 0.05 92 1018.4
20221207004937 3 13 1.6 1.6 0.00 0.05 0.05 92 1018.5
20221207004435 3 42 1.6 3.2 0.00 0.05 0.05 92 1018.4
20221207003933 3 54 3.2 3.2 0.00 0.05 0.05 92 1018.6
20221207003430 3 44 3.2 3.2 0.00 0.05 0.05 92 1018.2
20221207002929 3 23 0.0 0.0 0.00 0.05 0.05 92 1018.4
20221207002427 3 340 1.6 1.6 0.00 0.05 0.05 92 1018.6
20221207001927 3 5 1.6 1.6 0.00 0.05 0.05 92 1018.8
20221207001426 3 61 3.2 3.2 0.00 0.05 0.05 92 1018.4
20221207000925 3 59 1.6 1.6 0.00 0.05 0.05 92 1018.2
20221207000423 3 42 0.0 0.0 0.00 0.05 0.05 92 1018.4
20221206235922 3 351 1.6 1.6 0.00 0.05 0.05 91 1018.5
20221206235420 3 32 0.0 0.0 0.00 0.05 0.05 91 1018.5
20221206234918 3 71 0.0 0.0 0.00 0.05 0.05 91 1018.7
20221206234418 3 322 0.0 1.6 0.00 0.05 0.05 91 1018.8
20221206233917 3 343 0.0 0.0 0.00 0.05 0.05 91 1018.5